Bredlow Corner, Arkansas
Current Conditions -  °F | °C
As of 2:55 AM on Wednesday 22 Oct 2014 (Local Time) from KSGT Reporting Station
Clear Clear  
Wind Chill: 52°   Ceiling: Unl
Heat Index: 52°   Visibility: 10mi
Dew Point: 46°   Wind: 7mph
Humidity: 82%   Direction: 30°NNE
Pressure: 30.13"   Gusts: NA
Location:  34.5894°N, 91.9107°W
Report Text: KSGT 220755Z AUTO 03006KT 10SM CLR 11/08 A3013 RMK AO1
Loading
Personal Weather Stations






























Interactive Weather Map
Tropical Storm Tracking
New forecast layout! Learn more

10-Day Weather Forecast

Advertisements
Track Severe Weather on mobile